Torna al catalogo

STARLINK-37512

AttivoComunicazioniSSO
NORAD 69035·PAYLOAD·🇺🇸 United States

Lanciato May 6, 2026 da Vandenberg Space Force Base

Loading…

Prossimi Passaggi (prossime 24 ore)

TLE

AggiornatoSource: CelesTrak SupGP

Epoca: Sep 14, 2026, 21:37 UTC

1 69035C 26101L   26257.90118056  .00059789  00000+0  18566-2 0  2577
2 69035  97.2848 111.5260 0001667  92.1491 315.5952 15.33398703    18

Traccia STARLINK-37512 in tempo reale con AllMySat

Download on the App Store